Vertical_Velocity
4 0 3 2 2 6 12 2 2 1 1 22 -5 3 -4 2 -4 -2 -2 -4 2 -2 1 -2 -1 -17 4 5 2 -3 -0 3 -4 -6 -4 -2 -4 1 -1 6 -3 -1 2 -37
-0 5 1 1 -2 -3 14 6 6 6 9 -0 2 5 2 2 5 0 9 -3 3 17 2 0 1 10 -2 -1 -3 -4 -5 7 1 3 4 -0 0 -3 8 2 8 -10 10 -25
-5 -0 6 -0 2 -1 -0 14 9 10 11 9 4 3 2 8 9 10 14 2 6 14 7 12 -6 1 7 5 6 -2 9 2 -6 -10 12 5 -2 -1 1 8 20 -12 -11 -36
2 -4 1 6 2 4 -2 -1 -2 3 4 11 10 10 4 5 7 11 10 10 9 5 10 13 9 10 6 -3 2 8 4 0 3 -2 1 5 -1 4 8 -1 -7 12 -22 -5
-0 -8 2 5 4 2 4 -6 -0 2 -2 -0 7 6 1 2 -0 -2 -0 10 5 6 3 5 2 4 6 -5 -4 12 18 0 3 -7 0 -4 -5 6 3 1 -0 -9 -10 -30
-1 -1 -2 -1 5 7 7 -2 -2 6 2 1 1 -5 2 2 3 -1 -4 0 2 3 4 1 3 5 -0 -0 -1 -3 -5 -5 2 -19 -2 4 -1 -20 -3 3 -6 6 -3 -15
10 -2 -4 -2 -3 8 7 5 2 3 -10 -2 1 4 3 2 3 -0 -2 -2 -3 -1 -1 -2 1 -1 0 2 -0 1 1 5 5 -8 4 7 -14 4 -2 1 2 7 -6 -11
1 -2 -7 -1 3 6 2 4 12 6 -3 -4 -5 -0 -0 0 -0 -11 -2 2 1 7 5 13 -3 -11 1 -14 -9 -4 1 8 1 4 1 -16 -13 2 -6 5 -37 12 -4 1
4 1 4 5 -3 2 5 -1 8 4 4 -8 4 4 1 1 -1 -1 -14 -5 -3 4 2 16 -2 -2 -3 2 -5 -0 7 8 14 6 5 -2 -22 -1 -2 14 -37 1 -3 -2
2 -2 8 4 6 6 4 -1 5 10 4 -3 -0 -3 -7 0 -2 1 -7 -7 -8 4 13 5 6 -1 -4 -0 -8 -3 2 3 -7 -1 6 -6 -27 6 5 10 -25 1 1 -0
2 6 3 4 9 8 4 3 2 5 7 -4 3 6 -3 6 3 -7 7 12 -9 -4 2 3 1 7 -7 -1 -9 -6 5 2 -2 4 9 -7 -4 7 -9 8 -1 3 1 -2
11 3 5 5 0 10 -3 -3 4 6 -5 -18 -5 -5 -3 -5 8 -2 -2 -3 5 15 30 7 6 -9 -1 -6 -13 -3 -3 -25 -8 -7 -12 -5 6 2 -2 1 -1 2 0 0
7 9 5 -0 14 4 -1 -2 4 2 -8 -8 -19 -1 14 -4 -2 15 -2 -7 8 -17 9 36 20 7 -8 14 -6 3 -7 4 -6 14 -24 -11 6 6 -9 2 3 1 -1 -1
0 1 1 5 -3 7 -2 -5 2 5 3 -10 -12 -2 -4 7 10 5 -3 2 -4 1 5 -4 4 17 5 -10 -3 -3 2 11 3 -17 -15 2 -3 1 -5 -7 -3 2 2 -0
-2 -2 -3 7 6 3 13 -6 -2 4 3 -5 -11 -5 6 -10 1 5 1 -3 2 6 6 9 -9 -1 15 -5 17 -19 -6 -19 -2 -28 6 -1 -7 4 5 -1 -2 9 2 1
-3 9 6 5 17 2 1 -8 8 -1 10 -18 -9 -9 -7 9 -1 -0 -7 -2 1 5 7 -0 5 6 14 10 -5 -32 3 11 17 -27 8 2 -4 -6 -1 2 3 4 1 3
3 1 4 6 11 -3 3 -7 -2 6 6 10 7 -8 -13 -6 1 8 7 5 4 13 5 -11 7 18 14 4 -20 23 8 3 3 -2 -3 -7 1 -6 3 2 2 0 1 0
0 -1 2 5 4 2 -11 3 5 5 3 4 14 -8 -3 4 -4 2 4 -0 8 4 6 -8 2 -1 9 -13 -10 5 6 8 1 -1 1 -2 0 -1 3 5 0 1 1 -2
1 5 7 8 -1 -13 1 7 1 4 5 -1 7 7 -1 -3 -4 -1 -4 4 3 1 -5 1 14 -1 -14 -9 -2 -5 -0 3 -0 0 -5 -2 1 -1 2 1 1 0 -3 -3
8 16 9 -0 -16 14 2 1 9 -2 -1 -2 -12 -6 -12 9 2 -2 -0 -1 9 6 -2 6 3 -13 -5 -2 1 3 2 1 -5 -2 4 0 -2 0 0 -2 -2 -1 -1 -1
9 12 2 11 -2 11 12 5 2 4 1 -5 -14 -2 4 0 -1 6 7 1 0 -3 -3 3 -2 -11 -0 2 -0 -2 -1 2 3 4 3 -0 1 1 1 -0 -2 -0 0 0
1 5 8 6 13 -1 4 2 -2 -3 -1 -5 -6 0 3 -2 4 8 2 1 3 2 3 0 -4 -3 0 -2 0 3 3 3 1 3 1 0 0 -1 -1 -1 0 1 1 2
9 6 7 5 -6 3 -2 -3 -3 -5 -5 -3 -2 0 5 0 7 9 1 2 2 1 -1 -2 -2 2 2 2 -1 -2 -0 1 2 -0 -1 -0 0 0 0 0 -1 -0 0 -0
8 -0 -1 -3 0 5 -5 -5 -1 -2 1 4 1 3 6 3 6 5 3 3 0 1 -1 -0 -1 -0 -1 -2 -1 -0 0 0 -0 -0 1 1 1 1 1 -0 -1 -0 -0 -1
3 -1 1 2 -2 -0 1 1 5 2 3 6 6 5 7 3 4 0 2 1 0 -0 0 -1 -1 -1 -1 -0 0 0 -0 -0 1 1 1 1 1 1 -1 -2 -3 -2 -1 -0
2 3 2 -1 3 2 2 1 3 3 1 3 5 2 1 1 1 1 1 1 -0 1 1 1 0 -0 -1 -0 -0 0 0 -0 -0 -1 -0 -0 -1 -2 -1 0 -1 0 -0 -1
-0 -3 0 0 2 1 2 3 2 1 2 1 2 2 1 0 2 -0 -0 -1 -0 -2 -2 -1 -0 1 0 -2 -1 -2 -1 -1 -0 0 -0 -0 0 -1 -1 -3 11 0 1 -1
Height
3053 3054 3055 3057 3060 3067 3071 3072 3075 3077 3084 3089 3082 3079 3081 3083 3085 3094 3096 3097 3099 3098 3100 3100 3100 3098 3100 3099 3099 3101 3103 3102 3100 3098 3097 3099 3101 3100 3103 3105 3104 3102 3101 3075
3046 3048 3048 3049 3050 3054 3061 3060 3060 3063 3069 3070 3069 3071 3072 3073 3073 3076 3080 3082 3083 3088 3088 3090 3087 3085 3087 3091 3093 3092 3094 3090 3092 3089 3089 3087 3087 3088 3090 3092 3093 3087 3092 3073
3039 3041 3043 3044 3044 3044 3049 3052 3053 3054 3053 3055 3057 3060 3062 3064 3063 3066 3067 3068 3069 3071 3070 3073 3071 3074 3076 3078 3082 3083 3085 3081 3080 3074 3078 3078 3078 3079 3081 3083 3080 3075 3066 3066
3032 3034 3038 3038 3039 3039 3041 3043 3043 3044 3045 3047 3046 3048 3050 3052 3055 3056 3056 3057 3058 3059 3060 3060 3061 3065 3066 3070 3073 3074 3076 3072 3072 3071 3071 3072 3070 3071 3072 3070 3068 3068 3060 3060
3028 3029 3030 3032 3034 3035 3034 3037 3040 3040 3039 3040 3041 3040 3041 3043 3047 3050 3052 3052 3053 3053 3054 3057 3057 3057 3059 3062 3064 3066 3064 3063 3064 3062 3064 3064 3059 3058 3059 3060 3059 3056 3055 3043
3020 3022 3024 3024 3026 3027 3027 3030 3033 3034 3034 3034 3035 3035 3035 3035 3038 3041 3044 3047 3047 3047 3049 3048 3049 3050 3053 3055 3056 3057 3059 3059 3058 3053 3057 3056 3049 3045 3046 3048 3045 3045 3044 3042
3010 3014 3017 3018 3019 3019 3022 3025 3027 3028 3026 3028 3030 3029 3030 3030 3031 3033 3036 3039 3039 3044 3042 3042 3041 3041 3042 3044 3046 3047 3048 3051 3052 3049 3051 3044 3037 3038 3038 3037 3036 3037 3035 3034
3003 3006 3008 3011 3012 3012 3014 3018 3019 3019 3018 3020 3023 3024 3024 3024 3024 3026 3028 3031 3033 3034 3035 3035 3035 3034 3034 3032 3035 3036 3038 3039 3041 3043 3039 3034 3030 3031 3032 3031 3024 3028 3025 3025
2995 2997 2999 3001 3004 3006 3006 3009 3011 3011 3012 3013 3017 3018 3019 3019 3017 3018 3018 3023 3025 3027 3028 3027 3023 3025 3025 3026 3027 3026 3028 3029 3033 3033 3028 3023 3023 3025 3026 3026 3018 3020 3018 3017
2986 2988 2991 2994 2996 2998 2999 3001 3003 3003 3003 3005 3008 3009 3011 3012 3013 3011 3013 3015 3017 3021 3017 3016 3016 3014 3017 3018 3018 3020 3021 3022 3020 3020 3017 3013 3016 3018 3020 3021 3016 3013 3013 3012
2976 2980 2982 2985 2988 2990 2991 2994 2995 2997 2996 2997 3000 3001 3004 3004 3005 3007 3008 3008 3007 3010 3010 3008 3008 3005 3005 3007 3007 3009 3013 3014 3012 3013 3012 3008 3010 3009 3011 3009 3007 3007 3007 3007
2970 2972 2976 2977 2982 2983 2983 2986 2988 2988 2987 2990 2992 2993 2995 2998 2999 2997 2996 2999 3000 3002 2997 2997 2998 2998 2998 2999 2999 3002 3003 3001 3002 3003 3000 3003 3003 3002 3002 3003 3003 3002 3001 3002
2962 2965 2968 2971 2975 2976 2979 2979 2983 2982 2983 2982 2983 2987 2989 2988 2990 2989 2988 2989 2992 2991 2993 2991 2991 2988 2989 2988 2987 2991 2993 2993 2991 2993 2993 2994 2995 2996 2996 2997 2997 2995 2995 2994
2955 2959 2963 2966 2969 2972 2973 2974 2977 2977 2978 2976 2973 2975 2976 2978 2978 2979 2980 2982 2982 2983 2983 2981 2981 2979 2980 2980 2981 2982 2986 2984 2984 2982 2984 2985 2986 2987 2987 2988 2989 2987 2987 2987
2949 2953 2956 2959 2962 2966 2965 2966 2970 2971 2974 2971 2969 2965 2967 2967 2969 2970 2971 2973 2974 2973 2973 2972 2972 2972 2972 2968 2970 2971 2974 2974 2974 2974 2976 2976 2975 2978 2979 2978 2979 2980 2978 2979
2943 2947 2950 2954 2957 2957 2958 2962 2964 2965 2965 2965 2966 2958 2959 2958 2963 2964 2963 2965 2966 2966 2964 2963 2961 2959 2965 2959 2956 2960 2964 2966 2965 2965 2968 2965 2964 2967 2969 2971 2971 2971 2970 2970
2935 2939 2944 2947 2949 2951 2953 2957 2959 2959 2960 2960 2956 2948 2949 2952 2956 2955 2956 2957 2958 2957 2956 2956 2955 2951 2954 2950 2950 2953 2955 2955 2955 2956 2957 2957 2957 2959 2961 2962 2962 2962 2962 2962
2929 2933 2937 2941 2943 2945 2946 2947 2951 2952 2954 2954 2951 2945 2946 2947 2948 2949 2948 2949 2951 2948 2947 2949 2948 2947 2946 2942 2942 2944 2945 2946 2946 2948 2948 2948 2948 2950 2951 2951 2952 2953 2953 2954
2924 2928 2932 2935 2935 2935 2937 2943 2945 2946 2949 2947 2944 2940 2943 2944 2943 2943 2944 2943 2942 2941 2941 2941 2941 2938 2936 2935 2935 2936 2937 2937 2937 2938 2938 2938 2939 2940 2942 2942 2943 2944 2945 2945
2919 2923 2925 2926 2927 2931 2934 2936 2937 2938 2938 2938 2936 2938 2939 2940 2937 2938 2941 2938 2935 2932 2933 2932 2929 2926 2927 2927 2927 2927 2928 2928 2928 2928 2928 2930 2930 2932 2933 2934 2935 2936 2936 2937
2911 2915 2919 2921 2921 2925 2927 2930 2930 2930 2928 2926 2928 2930 2932 2931 2932 2932 2934 2931 2931 2928 2928 2926 2921 2918 2918 2918 2919 2919 2918 2917 2917 2918 2919 2920 2922 2924 2925 2926 2926 2927 2928 2929
2905 2910 2916 2919 2919 2922 2923 2922 2923 2921 2920 2917 2918 2921 2924 2924 2924 2925 2924 2924 2923 2919 2917 2917 2912 2910 2910 2911 2911 2910 2910 2910 2910 2911 2911 2913 2914 2916 2916 2917 2918 2919 2920 2921
2904 2909 2913 2916 2917 2915 2913 2912 2911 2911 2910 2911 2913 2914 2916 2917 2918 2918 2917 2915 2914 2912 2911 2907 2904 2904 2904 2905 2905 2905 2905 2904 2904 2904 2905 2906 2907 2908 2909 2910 2911 2912 2913 2914
2904 2907 2909 2910 2907 2904 2903 2905 2906 2907 2907 2908 2908 2909 2910 2908 2909 2910 2909 2908 2907 2905 2902 2898 2898 2898 2899 2899 2899 2900 2899 2899 2899 2900 2900 2901 2901 2902 2903 2904 2905 2906 2907 2907
2903 2905 2903 2899 2899 2899 2899 2900 2901 2901 2901 2901 2902 2903 2904 2904 2905 2904 2903 2902 2899 2898 2896 2896 2896 2896 2896 2896 2896 2895 2895 2895 2895 2896 2896 2896 2897 2897 2898 2899 2899 2900 2900 2900
2899 2897 2894 2893 2894 2894 2894 2895 2895 2895 2895 2896 2898 2898 2899 2899 2899 2897 2896 2896 2895 2894 2894 2894 2893 2893 2893 2893 2892 2892 2892 2892 2892 2892 2892 2892 2892 2892 2892 2892 2892 2892 2890 2889
2892 2890 2890 2890 2889 2889 2889 2889 2890 2891 2892 2893 2895 2895 2895 2895 2894 2894 2893 2892 2892 2892 2892 2892 2891 2891 2890 2889 2889 2888 2887 2886 2886 2885 2884 2883 2883 2881 2880 2881 2882 2879 2877 2875